Waarnemingen

Advertentie
Mijn weer
St-Girons, Frankrijk (7627): temperatuur & dauwpunt: 22.05.2018 12:00:00 - 28.05.2018 12:00:00 (CEST)St-Girons, Frankrijk (7627): temperatuur 5cm: 22.05.2018 12:00:00 - 28.05.2018 12:00:00 (CEST)St-Girons, Frankrijk (7627): temperatuur -20cm & temperatuur -100cm: 22.05.2018 12:00:00 - 28.05.2018 12:00:00 (CEST)St-Girons, Frankrijk (7627): windsnelheid & windstoten: 22.05.2018 12:00:00 - 28.05.2018 12:00:00 (CEST)St-Girons, Frankrijk (7627): windrichting: 22.05.2018 12:00:00 - 28.05.2018 12:00:00 (CEST)St-Girons, Frankrijk (7627): luchtdruk: 22.05.2018 12:00:00 - 28.05.2018 12:00:00 (CEST)St-Girons, Frankrijk (7627): zicht: 22.05.2018 12:00:00 - 28.05.2018 12:00:00 (CEST)St-Girons, Frankrijk (7627): Zonneschijnduur: 22.05.2018 12:00:00 - 28.05.2018 12:00:00 (CEST)St-Girons, Frankrijk (7627): neerslag: 22.05.2018 12:00:00 - 28.05.2018 12:00:00 (CEST)
Datum & Tijd tt [°C] td [°C] tt 5cm [°C] tt -20cm [°C] tt -100cm [°C] ff [km/u] ff [kn] fx [km/u] fx [kn] dd ppp [hPa] vv [km] sd [min] rr [mm]
28.05.2018 12:00:00 - - - - - - - - - - - - - -
28.05.2018 11:00:00 14,4 13,3 14,6 16,5 14,3 5 3 14 7 WNW 1015,5 5 0 0,2
28.05.2018 10:00:00 13,8 12,5 14,5 16,6 14,3 12 7 23 12 W 1015,6 14 0 0,0
28.05.2018 09:00:00 14,3 12,8 16,1 16,6 14,3 5 3 8 4 NW 1015,2 20 0 0,0
28.05.2018 08:00:00 13,8 12,7 13,4 16,7 14,3 0 0 11 6 N 1015,1 20 0 0,0
28.05.2018 07:00:00 12,9 12,0 13,3 16,7 14,3 4 2 8 4 ZZO 1015,5 20 0 0,0
28.05.2018 06:00:00 13,0 12,2 12,7 16,7 14,3 3 1 11 6 ZZO 1014,9 20 0 0,0
28.05.2018 05:00:00 12,6 11,8 10,6 16,8 14,3 4 2 9 5 ZZO 1015,1 20 0 0,0
28.05.2018 04:00:00 12,1 11,3 10,8 16,8 14,3 3 1 5 3 ZZO 1015,4 2,7 0 0,0
28.05.2018 03:00:00 12,6 11,7 10,9 16,9 14,3 2 1 7 4 ONO 1015,2 1,9 0 0,2
28.05.2018 02:00:00 12,8 11,9 11,1 16,9 14,3 5 3 12 6 WNW 1015,2 19 0 0,0
28.05.2018 01:00:00 14,0 12,2 12,4 16,9 14,3 8 4 19 10 ZO 1014,8 20 0 0,0
28.05.2018 00:00:00 14,2 12,6 13,2 16,9 14,3 8 4 23 12 ZZO 1015,3 20 0 0,2
27.05.2018 23:00:00 14,6 13,1 14,1 16,9 14,3 11 6 20 11 ZZO 1017,1 20 0 1,2
27.05.2018 22:00:00 14,9 13,1 14,2 16,9 14,3 11 6 24 13 ZO 1016,6 20 0 0,4
27.05.2018 21:00:00 14,8 13,5 14,5 17,0 14,3 9 5 15 8 ZO 1015,9 18 0 1,0
27.05.2018 20:00:00 15,2 14,2 15,0 16,9 14,2 7 4 15 8 OZO 1015,4 9 0 2,2
27.05.2018 19:00:00 15,5 13,9 14,7 16,9 14,3 0 0 46 25 N 1014,9 6 0 4,9
27.05.2018 18:00:00 16,3 14,5 15,7 16,9 14,2 17 9 41 22 W 1014,4 2,9 0 2,6
27.05.2018 17:00:00 18,8 15,1 18,3 16,9 14,2 8 4 14 8 W 1013,3 20 0 0,0
27.05.2018 16:00:00 19,3 14,1 18,7 16,8 14,2 7 4 15 8 N 1013,5 18 0 0,0
27.05.2018 15:00:00 20,6 14,3 21,9 16,8 14,2 5 3 13 7 N 1013,4 20 6 0,0
27.05.2018 14:00:00 22,2 15,1 28,6 16,8 14,2 6 3 14 8 WNW 1013,2 20 5 0,0
27.05.2018 13:00:00 22,0 13,9 28,9 16,7 14,2 2 1 11 6 NW 1013,6 20 16 0,0
27.05.2018 12:00:00 20,9 14,3 27,3 16,8 14,2 4 2 9 5 NNO 1013,9 20 0 0,0
27.05.2018 11:00:00 20,1 14,2 23,6 16,8 14,2 2 1 7 4 NNO 1014,2 18 0 0,0
27.05.2018 10:00:00 18,7 14,0 19,5 16,8 14,2 3 1 7 4 OZO 1014,5 20 3 0,0
27.05.2018 09:00:00 16,8 14,3 16,9 16,8 14,2 0 0 4 2 N 1014,8 14 0 0,0
27.05.2018 08:00:00 15,6 13,8 14,9 16,9 14,2 0 0 3 2 N 1014,7 20 0 0,0
27.05.2018 07:00:00 15,0 13,5 14,5 16,9 14,2 2 1 6 3 ZW 1014,6 20 0 0,0
27.05.2018 06:00:00 14,9 13,3 14,6 17,0 14,2 0 0 5 3 N 1014,4 20 0 0,0
27.05.2018 05:00:00 15,2 13,2 14,0 17,0 14,2 3 2 8 4 O 1014,3 20 0 0,0
27.05.2018 04:00:00 14,6 12,8 12,7 17,0 14,1 0 0 8 4 N 1014,8 20 0 0,0
27.05.2018 03:00:00 15,0 13,2 12,0 17,0 14,1 3 2 8 4 ZZW 1015,0 20 0 0,0
27.05.2018 02:00:00 15,0 12,5 12,2 17,1 14,1 6 3 11 6 O 1015,1 20 0 0,0
27.05.2018 01:00:00 16,5 12,5 14,7 17,1 14,1 7 4 18 10 NW 1015,5 20 0 0,0
27.05.2018 00:00:00 17,1 13,0 16,0 17,0 14,1 13 7 28 15 NW 1015,4 20 0 0,0
26.05.2018 23:00:00 17,6 13,5 14,2 17,0 14,1 10 5 16 9 NW 1014,7 20 0 0,0
26.05.2018 22:00:00 16,8 13,9 14,1 16,9 14,1 6 3 13 7 WNW 1013,7 20 0 0,0
26.05.2018 21:00:00 17,7 14,0 15,9 16,9 14,1 4 2 22 12 WZW 1012,3 20 0 0,0
26.05.2018 20:00:00 19,0 14,7 19,3 16,8 14,1 11 6 26 14 NW 1011,6 20 0 0,0
26.05.2018 19:00:00 19,9 14,7 21,8 16,7 14,1 16 9 33 18 NW 1011,6 20 23 0,0
26.05.2018 18:00:00 22,5 16,3 27,9 16,7 14,1 23 12 37 20 WNW 1010,6 20 55 0,0
26.05.2018 17:00:00 23,7 16,7 27,9 16,6 14,1 23 12 37 20 W 1010,3 18 50 0,0
26.05.2018 16:00:00 24,2 17,2 28,7 16,5 14,1 24 13 40 21 WNW 1010,1 17 44 0,0
26.05.2018 15:00:00 24,3 17,3 26,2 16,5 14,1 24 13 37 20 WNW 1010,3 18 19 0,0
26.05.2018 14:00:00 26,9 12,9 35,0 16,4 14,1 9 5 39 21 NO 1009,4 20 48 0,0
26.05.2018 13:00:00 26,7 12,7 28,1 16,3 14,1 6 4 24 13 OZO 1009,0 20 46 0,0
26.05.2018 12:00:00 21,6 15,9 23,8 16,3 14,1 6 3 14 8 OZO 1010,7 19 21 0,0
26.05.2018 11:00:00 22,5 16,5 25,9 16,4 14,0 5 3 14 7 N 1011,2 18 56 0,0
26.05.2018 10:00:00 21,1 15,4 20,0 16,3 14,0 4 2 10 6 O 1011,1 14 58 0,0
26.05.2018 09:00:00 18,4 15,1 16,4 16,5 14,0 0 0 7 4 N 1011,9 17 60 0,0
26.05.2018 08:00:00 15,5 14,9 12,3 16,5 14,0 2 1 7 4 ZO 1012,6 11 57 0,0
26.05.2018 07:00:00 13,0 12,4 10,6 16,6 14,0 3 2 6 4 W 1013,2 3,1 0 0,0
26.05.2018 06:00:00 12,7 11,8 10,4 16,6 14,0 2 1 7 4 NNO 1013,0 3,1 0 0,2
26.05.2018 05:00:00 14,1 13,5 10,3 16,7 14,0 6 3 10 6 ZO 1012,9 7 0 0,0
26.05.2018 04:00:00 12,5 11,7 10,0 16,7 14,0 2 1 5 3 ZW 1013,3 0,4 0 0,0
26.05.2018 03:00:00 12,7 11,9 10,1 16,7 13,9 2 1 4 2 ZW 1013,2 0,1 0 0,0
26.05.2018 02:00:00 13,7 12,9 10,8 16,8 14,0 2 1 6 3 O 1013,1 0,5 0 0,0
26.05.2018 01:00:00 13,7 12,6 10,9 16,7 13,9 3 1 8 5 ZZW 1013,0 2,5 0 0,0
26.05.2018 00:00:00 14,5 13,0 11,4 16,7 13,9 6 3 8 4 ZZW 1012,6 6 0 0,0
25.05.2018 23:00:00 16,1 14,6 13,2 16,6 13,9 4 2 8 5 NO 1012,7 11 0 0,0
25.05.2018 22:00:00 16,9 14,7 13,5 16,6 13,9 5 3 9 5 WNW 1012,1 10 0 0,0
25.05.2018 21:00:00 18,9 15,6 17,6 16,5 13,9 8 4 16 9 W 1011,7 15 3 0,0
25.05.2018 20:00:00 20,1 16,3 20,7 16,5 13,9 13 7 20 11 W 1011,4 17 0 0,0
25.05.2018 19:00:00 20,8 16,6 21,8 16,5 13,9 12 7 23 12 WNW 1010,8 18 0 0,0
25.05.2018 18:00:00 21,5 16,2 23,5 16,3 13,9 13 7 23 13 WNW 1010,9 18 1 0,0
25.05.2018 17:00:00 23,0 16,1 30,5 16,2 13,9 10 6 21 12 N 1010,7 17 34 0,0
25.05.2018 16:00:00 23,9 16,7 36,1 16,2 13,9 9 5 21 11 NNW 1011,1 19 54 0,0
25.05.2018 15:00:00 22,3 16,8 34,5 16,2 13,9 11 6 26 14 O 1011,9 16 54 0,0
25.05.2018 14:00:00 21,2 16,6 23,7 16,2 13,8 8 4 14 8 O 1012,7 15 45 0,0
25.05.2018 13:00:00 17,9 15,3 18,7 16,3 13,9 3 2 8 4 NNO 1014,4 10 0 0,0
25.05.2018 12:00:00 16,5 15,2 15,7 16,3 13,9 4 2 27 15 ZZO 1015,5 8 0 1,4
25.05.2018 11:00:00 15,5 14,5 15,8 16,3 13,8 3 1 18 10 NW 1016,1 6 0 0,2
25.05.2018 10:00:00 15,9 14,3 18,3 16,4 13,8 4 2 9 5 NW 1016,1 10 7 0,0
25.05.2018 09:00:00 15,0 14,2 15,3 16,4 13,8 2 1 11 6 NNO 1015,1 3,6 0 0,0
25.05.2018 08:00:00 14,2 13,4 12,3 16,4 13,8 6 3 10 5 W 1014,6 1,5 22 0,0
25.05.2018 07:00:00 13,5 12,7 9,4 16,5 13,8 4 2 11 6 ZO 1014,5 11 13 0,0
25.05.2018 06:00:00 12,7 11,8 9,6 16,5 13,8 0 0 6 3 N 1014,6 6 0 0,0
25.05.2018 05:00:00 13,5 11,9 10,4 16,5 13,8 0 0 14 7 N 1014,5 10 0 0,0
25.05.2018 04:00:00 15,1 13,1 12,1 16,6 13,8 5 3 17 9 OZO 1014,6 19 0 0,0
25.05.2018 03:00:00 15,6 14,0 13,1 16,6 13,8 5 3 16 9 OZO 1014,8 15 0 0,0
25.05.2018 02:00:00 14,8 13,7 12,8 16,6 13,8 3 2 5 3 ZZO 1015,8 9 0 0,0
25.05.2018 01:00:00 15,0 13,4 12,5 16,6 13,8 2 1 11 6 NW 1016,0 8 0 0,0
25.05.2018 00:00:00 16,1 13,9 12,6 16,5 13,8 4 2 18 10 ZZO 1016,0 13 0 0,0
24.05.2018 23:00:00 17,8 15,1 13,5 16,5 13,8 11 6 18 10 ZO 1015,5 19 0 0,0
24.05.2018 22:00:00 17,7 15,1 14,1 16,4 13,8 3 2 7 4 OZO 1015,2 14 0 0,0
24.05.2018 21:00:00 20,1 15,3 17,6 16,3 13,7 2 1 9 5 Z 1014,4 17 0 0,0
24.05.2018 20:00:00 22,1 15,2 22,4 16,2 13,7 5 3 13 7 NO 1014,3 20 23 0,0
24.05.2018 19:00:00 22,4 15,0 24,2 16,1 13,7 7 4 12 6 NW 1014,4 19 13 0,0
24.05.2018 18:00:00 22,9 14,7 26,0 16,1 13,7 6 3 16 9 NNW 1014,3 20 31 0,0
24.05.2018 17:00:00 24,2 14,3 32,6 16,0 13,7 9 5 16 8 NNW 1014,0 20 50 0,0
24.05.2018 16:00:00 23,4 14,4 33,8 15,9 13,7 9 5 21 11 NNW 1014,5 20 48 0,0
24.05.2018 15:00:00 23,1 15,2 30,9 15,8 13,7 8 4 18 10 N 1014,8 20 53 0,0
24.05.2018 14:00:00 22,3 15,9 38,9 15,8 13,7 5 3 19 11 NW 1015,1 20 60 0,0
24.05.2018 13:00:00 21,2 14,1 36,6 15,9 13,7 9 5 22 12 N 1015,8 20 60 0,0
24.05.2018 12:00:00 19,6 13,5 21,4 15,8 13,7 8 4 17 9 N 1016,3 20 53 0,0
24.05.2018 11:00:00 16,8 13,5 18,4 15,5 13,7 6 3 18 10 W 1016,9 20 0 0,0
24.05.2018 10:00:00 17,2 13,3 17,0 15,9 13,7 6 4 17 9 O 1016,4 20 19 0,0
24.05.2018 09:00:00 14,5 12,2 12,8 16,0 13,7 6 3 17 9 OZO 1017,0 20 0 0,0
24.05.2018 08:00:00 12,1 11,3 10,4 16,1 13,7 8 4 13 7 WNW 1018,1 20 5 0,0
24.05.2018 07:00:00 10,9 10,0 7,9 16,1 13,7 4 2 10 5 ZZW 1017,4 15 12 0,0
24.05.2018 06:00:00 11,3 10,5 7,7 16,2 13,6 5 3 6 4 ZZW 1017,4 18 0 0,0
24.05.2018 05:00:00 11,7 10,6 8,8 16,2 13,6 5 3 11 6 Z 1017,1 20 0 0,0
24.05.2018 04:00:00 12,1 11,0 8,9 16,2 13,6 5 3 13 7 ZZO 1017,2 19 0 0,0
24.05.2018 03:00:00 12,3 11,0 9,1 16,3 13,6 0 0 8 5 N 1017,4 18 0 0,0
24.05.2018 02:00:00 14,0 11,7 11,6 16,3 13,6 2 1 24 13 ZW 1017,2 20 0 0,0
24.05.2018 01:00:00 15,5 11,9 13,5 16,3 13,6 11 6 28 15 ZZO 1017,2 20 0 0,0
24.05.2018 00:00:00 15,9 12,1 14,2 16,3 13,6 20 11 32 17 ZZO 1017,5 20 0 0,0
23.05.2018 23:00:00 15,6 12,5 14,5 16,2 13,6 15 8 38 21 Z 1017,5 20 0 0,0
23.05.2018 22:00:00 15,7 12,8 14,1 16,2 13,6 18 10 29 16 ZZO 1017,3 20 0 0,0
23.05.2018 21:00:00 15,4 12,9 14,4 16,1 13,6 17 9 31 17 Z 1017,7 20 0 1,2
23.05.2018 20:00:00 15,4 14,1 14,8 16,0 13,6 16 9 41 22 ZZO 1018,2 9 0 7,7
23.05.2018 19:00:00 19,6 14,8 18,0 15,9 13,6 6 3 19 11 ZW 1016,0 10 0 0,4
23.05.2018 18:00:00 22,4 12,3 23,3 15,8 13,6 8 4 17 9 N 1014,7 20 18 0,0
23.05.2018 17:00:00 24,2 11,8 29,7 15,6 13,6 5 3 19 10 NNO 1014,3 20 52 0,0
23.05.2018 16:00:00 23,9 12,5 30,4 15,5 13,6 8 4 18 10 ONO 1014,6 19 42 0,0
23.05.2018 15:00:00 24,0 14,1 40,8 15,5 13,6 9 5 21 11 N 1015,3 20 60 0,0
23.05.2018 14:00:00 23,4 14,1 37,7 15,4 13,6 4 2 21 12 NW 1016,0 17 60 0,0
23.05.2018 13:00:00 22,2 14,3 31,8 15,4 13,6 3 2 17 9 W 1016,6 19 54 0,0
23.05.2018 12:00:00 21,5 13,9 31,3 15,4 13,6 6 3 13 7 N 1017,0 19 60 0,0
23.05.2018 11:00:00 19,8 13,3 25,6 15,5 13,6 7 4 11 6 NW 1017,4 20 60 0,0
23.05.2018 10:00:00 19,5 12,5 18,6 15,5 13,5 4 2 9 5 NNO 1017,5 19 60 0,0
23.05.2018 09:00:00 17,0 12,9 16,1 15,6 13,5 0 0 4 2 N 1017,9 19 58 0,0
23.05.2018 08:00:00 14,3 12,3 9,7 15,6 13,5 3 1 8 4 ZZO 1018,0 19 60 0,0
23.05.2018 07:00:00 11,1 10,3 8,7 15,6 13,5 0 0 6 4 N 1018,0 9 12 0,0
23.05.2018 06:00:00 11,1 10,3 8,3 15,7 13,5 3 1 6 3 ZZO 1017,7 9 0 0,0
23.05.2018 05:00:00 11,9 11,0 8,2 15,7 13,5 4 2 8 4 O 1017,6 19 0 0,0
23.05.2018 04:00:00 12,5 11,1 10,0 15,8 13,5 2 1 18 10 W 1017,5 9 0 0,0
23.05.2018 03:00:00 13,8 11,7 11,9 15,7 13,5 8 5 18 10 ZO 1017,3 20 0 0,0
23.05.2018 02:00:00 13,7 11,9 12,7 15,8 13,5 0 0 13 7 N 1017,8 19 0 0,0
23.05.2018 01:00:00 14,1 12,1 11,4 15,8 13,5 6 3 10 5 O 1017,9 20 0 0,0
23.05.2018 00:00:00 13,4 11,6 11,4 15,7 13,5 3 2 17 9 W 1017,9 17 0 0,0
22.05.2018 23:00:00 14,1 12,5 12,2 15,7 13,5 3 2 8 4 ZZW 1017,1 16 0 0,0
22.05.2018 22:00:00 14,9 12,8 13,2 15,6 13,5 3 2 9 5 Z 1016,4 7 0 0,0
22.05.2018 21:00:00 16,5 12,6 15,7 15,6 13,5 7 4 10 5 Z 1015,7 20 0 0,0
22.05.2018 20:00:00 18,2 13,5 19,3 15,5 13,5 4 2 9 5 ZZO 1015,0 20 32 0,0
22.05.2018 19:00:00 19,8 12,5 21,3 15,5 13,5 5 3 18 10 ZZO 1014,3 20 55 0,0
22.05.2018 18:00:00 17,5 14,0 17,2 15,4 13,5 10 5 26 14 Z 1014,8 19 1 1,0
22.05.2018 17:00:00 18,2 14,1 17,9 15,4 13,5 8 4 23 12 WZW 1014,4 17 4 0,2
22.05.2018 16:00:00 20,2 12,2 24,8 15,3 13,5 4 2 16 9 NW 1013,7 20 16 0,0
22.05.2018 15:00:00 20,1 11,6 25,3 15,3 13,5 8 4 18 10 NNW 1014,1 20 27 0,0
22.05.2018 14:00:00 19,3 12,6 25,4 15,2 13,4 8 4 17 9 NW 1014,4 20 25 0,0
22.05.2018 13:00:00 19,5 10,2 30,0 15,2 13,4 4 2 13 7 NO 1014,5 19 30 0,0
22.05.2018 12:00:00 18,9 12,6 26,0 15,2 13,4 4 2 11 6 NO 1014,8 20 38 0,0

tt = temperatuur
td = dauwpunt
tt 5cm = temperatuur 5cm
tt -20cm = temperatuur -20cm
tt -100cm = temperatuur -100cm
ff = windsnelheid
fx = windstoten
dd = windrichting
ppp = luchtdruk
vv = zicht
sd = Zonneschijnduur
rr = neerslag

Weerstations in de omgeving